Theta_e
319 319 319 319 319 319 319 319 320 320 321 321 321 321 320 320 320 321 318 318 321 332 326 319 318 317 316 314 317 316 306 304 307 306 311 315 313 319 322 323 327 333 327 328 337
319 319 319 319 319 319 319 319 320 320 320 321 321 320 319 320 319 319 323 338 333 333 316 316 314 315 312 313 315 310 306 307 312 312 311 313 313 315 316 319 325 332 332 329 336
318 318 318 318 318 318 318 319 319 320 320 321 320 320 319 320 320 320 331 334 335 324 317 318 316 314 310 313 313 311 306 311 312 312 313 312 312 316 315 322 326 324 323 333 335
318 318 318 318 318 318 318 318 319 320 320 320 320 320 319 321 311 320 339 333 334 319 317 316 313 311 309 309 313 308 311 312 312 312 311 310 313 312 315 319 328 327 325 329 336
317 317 317 317 317 317 317 318 319 319 319 320 320 320 319 316 317 327 341 330 317 318 317 314 312 311 309 311 312 309 310 312 312 311 311 312 310 311 313 318 322 326 328 331 337
317 317 317 317 317 317 318 318 318 318 319 319 320 320 317 314 324 326 322 318 321 319 316 315 314 315 312 311 309 312 311 311 312 311 312 309 310 311 313 318 317 319 321 323 327
317 317 316 316 316 317 317 318 317 319 320 321 322 321 320 315 324 324 322 320 320 319 314 317 318 314 314 310 313 311 307 309 310 310 309 311 307 308 313 316 315 316 319 320 321
316 316 316 316 316 317 317 317 318 322 321 323 323 323 315 323 326 321 322 318 319 320 319 319 318 315 313 315 311 307 307 302 309 310 310 309 302 311 313 313 314 315 317 318 320
316 315 315 315 316 316 317 316 318 323 323 323 324 324 314 323 318 322 322 316 317 318 319 318 316 313 313 307 305 307 301 303 305 311 310 308 305 312 315 314 314 315 319 321 336
316 315 315 315 316 316 315 315 321 322 322 326 326 318 317 314 318 320 322 319 315 315 313 312 312 308 308 306 299 303 303 304 304 309 310 307 307 311 314 314 315 323 328 331 333
316 315 315 316 316 315 316 321 317 317 322 317 315 313 315 318 320 318 319 317 316 313 308 312 306 304 308 309 308 306 305 304 307 310 308 307 307 309 314 314 319 325 327 328 329
315 315 316 315 315 315 316 320 317 319 312 317 316 315 317 318 312 315 319 313 311 308 310 307 305 309 309 307 306 305 303 304 307 309 307 307 305 309 312 315 321 322 324 324 323
314 314 315 315 314 314 321 317 322 322 312 311 314 313 314 316 311 311 316 314 310 307 307 306 307 309 306 306 305 305 304 304 304 306 307 305 303 307 313 318 320 323 323 323 319
313 313 314 314 314 320 319 321 322 323 308 306 309 313 315 316 310 316 317 313 309 307 307 307 309 306 305 304 305 301 308 306 304 301 297 306 296 305 311 313 316 319 319 320 318
313 313 313 312 318 318 319 322 322 320 299 309 309 319 315 311 312 311 317 313 308 308 307 305 306 305 304 305 308 303 306 304 303 300 300 301 298 302 311 310 313 316 317 318 318
313 312 311 320 323 322 322 322 321 303 296 305 310 308 308 310 309 313 312 315 314 308 309 307 312 309 306 308 307 308 305 304 304 301 294 300 299 300 306 310 312 315 316 316 317
312 312 311 323 318 323 322 317 304 298 310 305 305 308 306 306 307 308 308 307 305 302 303 307 307 310 309 305 307 306 303 295 294 295 294 304 300 305 310 312 313 313 314 315 316
309 308 316 324 325 324 320 310 299 307 306 309 306 306 304 307 306 307 306 304 309 307 303 299 298 306 309 305 302 303 302 294 288 290 294 304 297 304 312 313 314 316 315 315 314
307 324 322 327 323 323 314 301 303 306 308 305 306 303 303 306 306 306 305 305 308 308 301 300 300 308 308 308 306 302 299 305 298 300 294 296 304 309 312 311 312 313 315 314 314
313 319 320 324 325 321 309 302 308 309 308 306 301 305 301 304 304 304 304 308 306 308 309 304 297 306 306 307 306 303 306 296 299 291 290 296 298 300 306 307 309 309 314 314 315
318 316 321 324 322 315 305 307 309 310 309 305 305 304 305 305 305 304 304 306 307 306 307 305 303 301 304 302 301 302 302 301 301 298 291 290 296 309 307 309 308 308 310 316 315
318 310 320 322 308 313 309 310 303 308 309 307 307 307 305 306 304 303 302 305 308 307 302 307 304 298 300 307 307 305 302 301 294 294 299 297 296 309 309 309 309 308 309 316 317
312 314 321 318 304 307 310 308 308 307 307 307 305 306 308 304 301 304 305 308 307 305 304 307 302 295 298 303 305 302 304 303 302 303 296 292 295 309 310 309 310 308 309 311 317
312 308 314 314 313 309 306 305 305 308 307 308 307 308 306 304 306 302 303 306 307 306 311 309 302 298 293 298 302 299 302 303 301 296 296 296 298 304 307 307 308 308 309 309 311
314 310 311 306 307 308 308 307 304 303 307 308 305 305 304 301 303 302 305 306 307 308 306 306 298 301 301 301 301 300 300 300 298 299 295 297 297 301 304 305 307 308 309 309 311
311 310 313 307 309 306 303 305 304 306 305 305 305 307 307 303 305 303 306 306 305 307 306 309 299 301 298 302 301 298 300 300 299 299 299 299 298 304 306 308 307 308 309 309 310
319 317 310 307 309 306 306 307 305 307 308 307 306 306 305 307 310 311 311 310 309 307 306 306 301 298 294 300 299 295 299 299 299 300 299 295 299 305 304 305 307 307 309 309 313
Wind_Speed
15 14 14 14 14 13 13 13 12 12 12 12 11 11 11 12 16 7 8 3 1 3 5 13 10 12 11 13 15 10 10 13 14 5 8 9 6 8 4 10 8 9 13 12 10
16 15 15 15 14 14 14 13 13 13 13 12 11 10 10 10 8 15 3 3 4 3 9 10 10 10 9 14 9 10 11 15 14 15 14 10 5 9 9 6 19 19 9 13 15
17 16 15 15 15 14 14 14 14 13 13 11 10 9 8 9 9 6 4 3 1 4 12 15 11 9 12 15 10 11 13 11 7 12 12 13 9 6 13 19 12 13 21 20 17
17 18 17 16 15 14 14 15 14 14 12 11 9 7 7 7 3 5 5 5 3 7 12 13 10 11 13 14 10 9 14 5 10 9 7 9 11 8 11 16 25 24 27 32 18
18 17 17 16 16 15 15 15 15 14 11 9 7 5 6 8 3 7 8 6 7 9 13 10 10 10 15 11 7 6 15 2 8 4 8 8 9 12 12 12 11 28 30 28 17
17 18 17 16 16 15 14 14 14 13 10 8 6 3 6 9 10 11 8 8 13 10 10 10 10 9 10 12 4 6 9 4 7 8 8 6 10 12 11 4 5 2 5 5 4
17 16 17 16 15 15 14 14 13 12 8 6 6 6 9 6 5 6 7 9 3 8 6 6 11 9 7 8 8 7 10 12 12 11 5 3 12 17 13 4 5 4 7 2 6
18 17 16 16 15 14 14 14 13 10 6 6 6 8 4 2 7 4 4 3 3 4 8 7 7 11 10 13 5 11 13 13 16 9 6 4 15 14 15 2 7 6 8 4 3
19 17 16 16 15 14 13 14 13 11 8 5 7 8 3 4 9 7 7 5 3 4 2 5 8 11 11 10 12 14 11 15 11 11 3 5 14 11 7 3 5 5 8 10 23
20 18 16 15 14 13 13 9 7 9 8 11 11 10 5 4 4 3 2 1 5 3 7 7 7 10 11 12 8 11 10 7 2 12 8 6 11 11 8 6 2 14 15 18 23
21 19 17 14 12 11 12 5 6 6 11 12 7 2 5 8 5 6 4 5 4 7 12 13 9 12 13 12 11 12 11 10 8 3 4 8 12 14 7 10 12 15 14 15 18
22 20 17 15 11 7 7 8 7 9 10 12 9 3 7 11 7 8 8 8 6 12 4 6 13 10 7 7 8 9 8 9 2 3 4 11 12 13 12 11 16 16 14 15 16
24 21 18 15 12 5 9 7 8 7 7 7 10 9 8 12 6 9 11 6 10 6 8 12 10 7 4 8 6 8 9 9 11 13 13 17 17 17 11 19 15 16 15 15 11
25 23 20 21 4 5 2 6 8 6 7 14 8 6 7 5 4 5 5 6 4 10 2 8 12 5 4 9 3 10 11 7 9 11 12 16 12 7 20 17 13 16 13 14 10
25 24 23 5 11 8 8 8 10 3 7 14 12 9 11 9 10 10 3 4 10 5 3 6 1 5 5 6 5 12 12 10 14 14 16 17 11 14 21 19 15 17 14 13 9
24 24 23 1 8 8 9 7 5 7 5 9 10 9 10 9 5 7 5 6 9 8 9 11 7 4 7 10 8 9 13 15 16 15 14 19 16 7 7 17 17 16 13 10 8
25 22 13 9 8 10 9 6 7 9 5 11 6 8 13 11 7 5 9 11 9 7 11 13 12 10 3 9 12 8 10 9 11 11 14 11 15 12 13 13 13 15 12 11 10
30 21 11 10 10 8 7 7 9 10 2 7 1 5 11 11 5 4 7 8 12 7 11 11 11 9 11 3 9 10 8 7 13 13 15 7 4 11 13 13 14 15 10 13 10
33 5 7 11 5 5 8 10 13 11 7 2 6 8 10 4 6 4 9 12 7 10 6 7 3 7 2 3 5 7 7 12 8 14 14 14 5 8 12 10 9 10 11 10 10
8 10 11 2 3 5 7 15 12 5 7 3 11 9 10 13 12 8 9 8 5 7 4 4 9 13 12 1 10 8 10 7 7 7 9 9 6 9 10 9 7 7 10 10 10
5 7 7 5 4 6 10 6 1 10 8 4 9 12 4 11 2 8 5 7 4 2 2 9 6 10 3 10 10 7 9 4 7 7 10 11 2 8 8 7 4 3 5 12 10
7 8 7 3 7 8 10 7 3 5 1 4 4 8 8 7 5 7 9 7 8 3 6 6 5 9 14 7 3 7 11 12 10 11 10 11 8 9 7 9 5 4 5 8 14
7 11 6 3 9 10 6 4 2 1 7 3 4 3 2 4 3 9 7 10 5 3 6 10 5 7 10 15 8 4 7 8 9 9 12 11 9 12 6 6 5 8 8 4 16
7 7 6 4 4 8 4 8 4 5 8 2 9 5 5 6 8 5 6 8 4 4 8 4 6 9 10 16 15 10 13 15 11 10 13 14 17 6 7 7 11 6 7 9 8
6 5 5 4 3 6 2 6 7 6 6 3 5 9 8 8 11 12 10 8 12 14 5 3 7 11 13 16 19 18 16 17 17 17 17 17 19 15 14 13 10 4 5 8 11
7 8 4 8 4 6 4 8 5 4 0 9 8 12 5 8 9 12 12 7 5 10 9 9 9 11 14 18 17 19 14 16 18 18 19 20 20 13 13 6 6 7 8 10 12
2 6 4 5 7 8 3 1 3 3 6 9 9 6 7 6 11 11 10 8 8 9 6 6 7 8 14 16 19 15 13 6 9 12 13 14 14 9 6 8 10 9 8 9 12
Wind_Direction
344 345 341 338 337 335 331 326 321 316 310 310 311 309 312 315 301 227 262 37 34 349 321 268 218 237 237 262 258 271 270 259 262 227 77 85 297 70 1 293 55 85 140 169 220
344 344 341 339 337 334 330 325 320 313 306 308 305 310 314 324 275 258 116 116 49 12 256 237 216 225 242 240 232 233 252 286 5 22 13 48 349 9 308 230 56 72 17 169 192
345 340 343 339 338 335 328 321 315 308 304 303 300 305 311 306 269 98 175 142 64 275 266 295 298 268 246 249 225 243 255 348 355 35 359 338 312 10 295 85 89 76 9 298 172
343 342 341 340 335 332 325 320 315 309 303 296 295 302 308 255 350 70 175 152 209 268 267 265 250 247 249 250 237 241 278 357 323 44 326 295 332 315 313 96 134 128 132 265 253
341 338 336 337 332 330 324 321 316 309 298 288 286 285 268 228 70 112 143 168 204 226 248 250 251 247 258 266 238 260 271 148 284 278 278 319 298 277 300 85 126 160 183 211 181
338 334 332 335 330 327 323 319 311 306 292 276 262 269 248 262 103 137 154 181 255 231 246 265 265 325 317 300 295 320 285 324 247 269 271 256 270 263 254 195 104 78 261 182 231
334 328 331 331 325 323 320 314 308 305 285 255 240 248 266 13 127 146 209 228 240 272 260 271 324 300 304 275 245 312 258 257 240 238 256 38 263 242 246 142 117 322 277 90 27
334 330 330 326 324 319 314 309 304 298 278 253 229 248 300 49 329 202 217 167 245 285 300 353 275 288 287 313 263 249 254 260 230 148 172 220 277 216 205 207 66 299 281 72 59
335 331 327 325 322 315 310 304 289 280 259 224 233 238 194 129 220 203 226 182 182 241 258 307 260 270 259 252 250 220 255 233 139 165 182 208 286 105 99 270 45 296 31 42 49
336 335 329 325 320 313 304 284 312 284 218 228 259 268 199 147 104 172 231 127 215 211 235 233 235 240 221 240 280 328 239 245 183 138 163 264 274 282 136 118 210 65 50 32 40
340 340 334 326 320 314 308 213 213 195 230 280 140 293 111 95 168 195 175 207 233 236 258 184 239 229 23 8 356 322 322 333 327 4 29 271 269 277 155 158 101 75 53 32 23
343 342 336 331 326 311 277 265 28 315 290 223 270 44 136 182 176 153 198 232 189 249 192 221 229 57 3 358 325 310 299 268 286 322 294 281 274 257 256 112 85 80 71 56 19
342 341 334 330 321 248 253 347 295 303 267 165 202 177 187 225 150 156 222 233 247 255 230 273 66 41 329 290 258 272 270 324 342 337 297 258 258 242 136 106 103 97 92 80 48
341 337 335 325 299 274 263 332 304 31 269 162 189 159 177 232 143 94 301 313 249 313 357 282 74 340 284 275 357 296 17 358 298 297 285 335 301 5 145 127 121 100 80 74 58
336 333 327 340 304 302 349 314 331 248 272 137 171 119 181 219 100 180 119 254 277 315 223 39 115 230 275 356 39 303 348 310 287 278 283 278 264 258 149 152 131 95 82 75 75
332 327 333 181 230 308 315 325 240 237 259 151 146 198 206 221 188 124 207 233 312 288 253 268 53 320 291 346 301 307 297 280 272 260 254 255 246 287 154 122 110 100 97 85 73
325 318 310 311 306 334 317 254 221 250 109 147 203 201 207 191 186 228 218 207 246 248 247 229 214 180 135 288 256 219 272 306 294 225 246 241 221 87 101 83 91 104 95 93 75
320 316 223 259 298 336 280 234 256 258 137 56 21 166 244 230 183 165 272 263 251 236 285 291 300 141 110 8 341 316 294 295 301 303 319 62 278 117 113 109 105 111 107 106 98
311 237 244 223 313 290 262 229 238 355 21 85 196 243 219 140 277 205 246 266 56 37 341 334 348 76 12 9 351 340 286 345 309 282 281 282 148 119 131 116 97 120 117 106 110
313 287 255 84 94 256 244 256 296 9 332 307 280 206 239 214 192 233 261 32 82 63 6 316 292 301 113 301 266 235 318 292 219 276 269 276 301 91 166 120 83 36 125 128 127
264 259 104 282 184 240 245 243 210 78 332 300 300 290 295 294 357 273 318 119 92 52 28 301 287 276 17 267 253 176 243 241 260 292 294 294 323 96 92 79 50 331 320 152 166
294 278 92 296 243 237 252 356 359 293 174 275 295 315 313 334 281 271 277 45 69 5 303 42 332 287 288 323 15 326 307 295 277 284 284 299 277 96 149 152 213 254 341 159 178
286 291 113 271 261 267 116 258 299 327 269 290 251 276 331 290 262 252 277 96 80 339 19 9 230 273 263 221 112 316 282 259 265 294 276 278 285 285 165 249 318 341 322 297 180
279 282 183 213 275 303 8 261 197 145 295 276 291 345 283 242 259 262 247 141 135 109 76 14 284 281 283 302 314 283 245 247 239 253 269 268 284 275 195 215 278 333 351 317 315
248 289 22 291 94 329 327 322 263 220 191 200 267 245 247 252 264 233 226 150 174 152 175 193 267 285 293 297 296 294 293 291 278 277 269 276 278 296 322 313 322 1 315 327 321
284 339 349 271 315 279 160 240 295 305 323 271 223 293 276 259 268 288 319 316 283 146 201 196 254 279 290 295 273 267 283 300 286 281 275 283 285 288 276 17 348 1 353 335 344
334 269 260 297 215 251 285 179 314 31 279 266 304 309 286 347 346 338 353 338 315 307 270 250 267 275 279 287 287 284 275 307 340 320 315 273 281 325 7 319 16 346 345 337 50